Weather History for Somerset, KY

Change the Weather History Date:

Wednesday, March 26, 2014

  Actual Average Record
Temperature  
Mean Temperature 30 °F -  
Max Temperature 41 °F 62 °F 84 °F (2007)
Min Temperature 19 °F 38 °F 19 °F (2014)
Degree Days  
Heating Degree Days 35    
Moisture  
Dew Point 11 °F    
Average Humidity 48    
Maximum Humidity 74    
Minimum Humidity 23    
Precipitation  
Precipitation 0.00 in - - ()
Sea Level Pressure  
Sea Level Pressure 30.31 in    
Wind  
Wind Speed 3 mph (NW)    
Max Wind Speed 6 mph    
Max Gust Speed -    
Visibility 10 miles    
Events      
Averages and records for this station are not official NWS values.
T = Trace of Precipitation, MM = Missing Value Source: NWS Daily Summary

Daily Weather History Graph

Daily Weather History Graph

Search for Another Location

Airport:

Trip Planner

Search our weather history database for the weather conditions in past years. The results will help you decide how hot, cold, wet, or windy it might be!

Date:

Astronomy

Mar. 26, 2014 Rise Set
Actual Time 7:33 AM EDT 7:55 PM EDT
Civil Twilight 7:07 AM EDT 8:21 PM EDT
Nautical Twilight 6:36 AM EDT 8:52 PM EDT
Astronomical Twilight 6:05 AM EDT 9:23 PM EDT
Moon 4:35 AM EDT (3/26) 3:38 PM EDT (3/26)
Length of Visible Light 13h 14m
Length of Day
12h 22m
Waning Crescent, 22% of the Moon is Illuminated
Mar 26
Waning Crescent
Mar 30
New
Apr 7
First Quarter
Apr 15
Full
Apr 22
Last Quarter

Hourly Weather History & Observations

Time (EDT) Temp. Windchill Dew Point Humidity Pressure Visibility Wind Dir Wind Speed Gust Speed Precip Events Conditions
12:15 AM 28.4 °F 22.2 °F 14.0 °F 55% 30.23 in 10.0 mi NW 5.8 mph - N/A   Clear
12:35 AM 28.4 °F 24.6 °F 14.0 °F 55% 30.24 in 10.0 mi WNW 3.5 mph - N/A   Clear
12:55 AM 28.4 °F - 14.0 °F 55% 30.25 in 10.0 mi Calm Calm - N/A   Clear
1:15 AM 28.4 °F 23.3 °F 12.2 °F 51% 30.25 in 10.0 mi WNW 4.6 mph - N/A   Clear
1:35 AM 26.6 °F 22.6 °F 12.2 °F 55% 30.25 in 10.0 mi NW 3.5 mph - N/A   Clear
1:55 AM 26.6 °F 21.2 °F 12.2 °F 55% 30.25 in 10.0 mi NW 4.6 mph - N/A   Clear
2:15 AM 26.6 °F 22.6 °F 12.2 °F 55% 30.26 in 10.0 mi WNW 3.5 mph - N/A   Clear
2:35 AM 26.6 °F 22.6 °F 10.4 °F 51% 30.26 in 10.0 mi WNW 3.5 mph - N/A   Clear
2:55 AM 26.6 °F 22.6 °F 10.4 °F 51% 30.26 in 10.0 mi WNW 3.5 mph - N/A   Clear
3:15 AM 26.6 °F - 10.4 °F 51% 30.26 in 10.0 mi Calm Calm - N/A   Clear
3:35 AM 24.8 °F 20.5 °F 10.4 °F 54% 30.26 in 10.0 mi NW 3.5 mph - N/A   Clear
3:50 AM 24.8 °F 20.5 °F 12.2 °F 59% 30.27 in 10.0 mi West 3.5 mph - N/A   Clear
4:15 AM 24.8 °F - 12.2 °F 59% 30.27 in 10.0 mi Calm Calm - N/A   Clear
4:35 AM 23.0 °F - 12.2 °F 63% 30.27 in 10.0 mi Calm Calm - N/A   Clear
4:55 AM 23.0 °F - 12.2 °F 63% 30.27 in 10.0 mi Calm Calm - N/A   Clear
5:15 AM 23.0 °F - 12.2 °F 63% 30.27 in 10.0 mi Calm Calm - N/A   Clear
5:35 AM 23.0 °F - 12.2 °F 63% 30.28 in 10.0 mi Calm Calm - N/A   Clear
5:55 AM 21.2 °F - 12.2 °F 68% 30.28 in 10.0 mi Calm Calm - N/A   Clear
6:15 AM 21.2 °F - 12.2 °F 68% 30.29 in 10.0 mi Calm Calm - N/A   Clear
6:35 AM 21.2 °F 16.4 °F 12.2 °F 68% 30.29 in 10.0 mi NNE 3.5 mph - N/A   Clear
6:55 AM 21.2 °F - 12.2 °F 68% 30.30 in 10.0 mi Calm Calm - N/A   Clear
7:15 AM 19.4 °F - 12.2 °F 74% 30.31 in 10.0 mi Calm Calm - N/A   Clear
7:35 AM 23.0 °F - 10.4 °F 59% 30.32 in 10.0 mi Calm Calm - N/A   Clear
7:55 AM 23.0 °F - 10.4 °F 59% 30.33 in 10.0 mi Calm Calm - N/A   Clear
8:15 AM 21.2 °F - 14.0 °F 74% 30.35 in 10.0 mi Calm Calm - N/A   Clear
8:35 AM 23.0 °F - 12.2 °F 63% 30.36 in 10.0 mi Calm Calm - N/A   Clear
8:55 AM 26.6 °F - 12.2 °F 55% 30.36 in 10.0 mi Calm Calm - N/A   Clear
9:15 AM 26.6 °F 22.6 °F 12.2 °F 55% 30.37 in 10.0 mi NNE 3.5 mph - N/A   Clear
9:35 AM 28.4 °F 23.3 °F 12.2 °F 51% 30.37 in 10.0 mi North 4.6 mph - N/A   Clear
9:55 AM 28.4 °F 24.6 °F 12.2 °F 51% 30.38 in 10.0 mi North 3.5 mph - N/A   Clear
10:15 AM 28.4 °F - 10.4 °F 47% 30.39 in 10.0 mi Calm Calm - N/A   Clear
10:35 AM 30.2 °F 24.3 °F 10.4 °F 44% 30.39 in 10.0 mi North 5.8 mph - N/A   Clear
10:55 AM 30.2 °F 26.7 °F 10.4 °F 44% 30.40 in 10.0 mi North 3.5 mph - N/A   Clear
11:15 AM 30.2 °F - 10.4 °F 44% 30.40 in 10.0 mi Calm Calm - N/A   Clear
11:35 AM 30.2 °F 26.7 °F 6.8 °F 37% 30.40 in 10.0 mi West 3.5 mph - N/A   Clear
11:55 AM 32.0 °F 28.7 °F 8.6 °F 38% 30.40 in 10.0 mi North 3.5 mph - N/A   Clear
12:15 PM 32.0 °F 26.4 °F 8.6 °F 38% 30.39 in 10.0 mi NNW 5.8 mph - N/A   Clear
12:35 PM 32.0 °F 28.7 °F 8.6 °F 38% 30.39 in 10.0 mi SSW 3.5 mph - N/A   Clear
12:55 PM 33.8 °F - 8.6 °F 35% 30.37 in 10.0 mi Calm Calm - N/A   Clear
1:15 PM 33.8 °F 30.8 °F 8.6 °F 35% 30.36 in 10.0 mi SW 3.5 mph - N/A   Clear
1:35 PM 33.8 °F 28.6 °F 8.6 °F 35% 30.36 in 10.0 mi SW 5.8 mph - N/A   Clear
1:55 PM 35.6 °F 32.8 °F 10.4 °F 35% 30.36 in 10.0 mi NNE 3.5 mph - N/A   Clear
2:15 PM 35.6 °F 31.7 °F 8.6 °F 33% 30.35 in 10.0 mi North 4.6 mph - N/A   Clear
2:35 PM 37.4 °F 33.8 °F 10.4 °F 33% 30.34 in 10.0 mi ENE 4.6 mph - N/A   Clear
2:55 PM 37.4 °F 32.8 °F 10.4 °F 33% 30.34 in 10.0 mi ENE 5.8 mph - N/A   Clear
3:15 PM 37.4 °F - 8.6 °F 30% 30.33 in 10.0 mi Calm Calm - N/A   Clear
3:35 PM 37.4 °F - 8.6 °F 30% 30.33 in 10.0 mi Calm Calm - N/A   Clear
3:55 PM 39.2 °F 35.0 °F 10.4 °F 31% 30.32 in 10.0 mi SSW 5.8 mph - N/A   Clear
4:15 PM 39.2 °F 35.0 °F 8.6 °F 28% 30.31 in 10.0 mi West 5.8 mph - N/A   Clear
4:35 PM 41.0 °F 39.0 °F 10.4 °F 29% 30.30 in 10.0 mi South 3.5 mph - N/A   Clear
5:35 PM 41.0 °F - 6.8 °F 24% 30.28 in 10.0 mi Calm Calm - N/A   Clear
6:15 PM 41.0 °F - 5.0 °F 23% 30.27 in 10.0 mi Calm Calm - N/A   Clear
7:15 PM 41.0 °F - 6.8 °F 24% 30.26 in 10.0 mi Calm Calm - N/A   Clear
8:15 PM 37.4 °F - 6.8 °F 28% 30.26 in 10.0 mi Calm Calm - N/A   Clear
8:55 PM 35.6 °F - 8.6 °F 33% 30.25 in 10.0 mi Calm Calm - N/A   Clear
9:55 PM 32.0 °F - 12.2 °F 44% 30.27 in 10.0 mi Calm Calm - N/A   Clear
10:55 PM 32.0 °F 28.7 °F 15.8 °F 51% 30.27 in 10.0 mi ESE 3.5 mph - N/A   Clear
11:15 PM 32.0 °F - 14.0 °F 48% 30.27 in 10.0 mi Calm Calm - N/A   Clear
11:35 PM 32.0 °F - 12.2 °F 44% 30.27 in 10.0 mi Calm Calm - N/A   Clear
11:55 PM 30.2 °F - 14.0 °F 51% 30.27 in 10.0 mi Calm Calm - N/A   Clear